N80327 KMEM-

Flight info

Callsign N80327
Flight time N/A
Altitude VFR/025
Route VFR S
Aircraft B407/L-DOV/C

Departure

Time 2026-05-06 00:39
Airport Memphis International Airport (KMEM)

Arrival

Time N/A
Airport -
Time Latitude Longitude Altitude Speed Heading
2026-05-06 00:35 35.06133 -89.96774 344 ft 0 kts 155°
2026-05-06 00:37 35.06108 -89.96711 482 ft 21 kts 63°
2026-05-06 00:37 35.06139 -89.96654 615 ft 17 kts 346°
2026-05-06 00:38 35.06444 -89.96714 810 ft 57 kts 357°
2026-05-06 00:38 35.06754 -89.96731 807 ft 39 kts 356°
2026-05-06 00:38 35.06996 -89.96759 918 ft 42 kts 352°
2026-05-06 00:38 35.07305 -89.96867 1050 ft 42 kts 326°
2026-05-06 00:39 35.07398 -89.97096 1200 ft 28 kts 265°
2026-05-06 00:39 35.07075 -89.97258 1272 ft 71 kts 181°
2026-05-06 00:39 35.06561 -89.97288 870 ft 57 kts 182°
2026-05-06 00:39 35.06222 -89.97309 712 ft 40 kts 182°
2026-05-06 00:40 35.06017 -89.97320 613 ft 13 kts 189°
2026-05-06 00:40 35.05832 -89.97339 666 ft 64 kts 194°
2026-05-06 00:40 35.05404 -89.97342 759 ft 67 kts 178°
2026-05-06 00:40 35.05021 -89.97319 536 ft 35 kts 179°
2026-05-06 00:41 35.04895 -89.97305 358 ft 3 kts 166°
2026-05-06 00:41 35.04843 -89.97300 459 ft 41 kts 183°
2026-05-06 00:41 35.04293 -89.97280 628 ft 80 kts 182°
2026-05-06 00:41 35.03922 -89.97289 651 ft 37 kts 179°
2026-05-06 00:42 35.03552 -89.97285 596 ft 83 kts 185°
2026-05-06 00:42 35.03170 -89.97331 607 ft 76 kts 184°
2026-05-06 00:42 35.02751 -89.97278 933 ft 81 kts 160°
2026-05-06 00:42 35.02498 -89.96742 1026 ft 63 kts 92°
2026-05-06 00:43 35.02509 -89.96238 1208 ft 58 kts 70°
2026-05-06 00:43 35.02834 -89.95958 1327 ft 64 kts 11°